Richmond International Airport Airport (RIC)

 

Airport Diagram
Current Weather/Forecast (VFR Conditions)
METAR KRIC 281654Z 26015KT 10SM SCT060 BKN180 BKN300 09/M06 A2996 RMK AO2 SLP150 T00891061 PNO $
TAF KRIC 281500Z 2815/2912 24015G25KT P6SM SCT150 FM281800 24015G25KT P6SM BKN080 FM282100 26008KT P6SM BKN060 FM290300 VRB05KT P6SM FEW200

All Charts
General
Chart Name Download
AIRPORT DIAGRAM
TAKEOFF MINIMUMS
ALTERNATE MINIMUMS
HOT SPOT

Departures
Chart Name Download
COLIN EIGHT
KALLI SIX (RNAV)
KALLI SIX (RNAV), CONT.1
LUCYL SIX (RNAV)
LUCYL SIX (RNAV), CONT.1
READE SEVEN
READE SEVEN, CONT.1

Arrivals
Chart Name Download
DUCXS FOUR (RNAV)
POWTN FOUR (RNAV)
SPIDR THREE (RNAV)

Approaches
Chart Name Download
ILS OR LOC RWY 02
ILS OR LOC RWY 16
ILS OR LOC RWY 34
ILS RWY 34 (SA CAT I)
ILS RWY 34 (CAT II - III)
RNAV (RNP) Y RWY 02
RNAV (RNP) Y RWY 16
RNAV (RNP) Y RWY 20
RNAV (RNP) Y RWY 34
RNAV (GPS) Z RWY 02
RNAV (GPS) Z RWY 16
RNAV (GPS) Z RWY 20
RNAV (GPS) Z RWY 34
VOR RWY 02
VOR RWY 16
VOR RWY 20
VOR RWY 34


Inbound Traffic (Arrivals)

No inbound traffic.


Outbound Traffic (Departures)

No outbound traffic.